Regional Weather Roundup
Issued by NWS

Home | Current Version | Previous Version | Graphics & Text | Print | Product List | Glossary Off
Versions: 1 2 3 4 5 6 7 8 9 10 11 12 13 14 15 16 17 18 19 20 21 22 23 24 25 26 27 28 29 30 31 32 33 34 35 36 37 38 39 40 41 42 43 44 45 46 47 48 49 50

000
ASUS43 KMPX 200601
RWRMN
WEATHER ROUNDUP FOR MINNESOTA
NATIONAL WEATHER SERVICE TWIN CITIES/CHANHASSEN MN
100 AM CDT WED SEP 20 2017


NOTE: "FAIR" INDICATES FEW OR NO CLOUDS BELOW 12,000 FEET WITH NO
SIGNIFICANT WEATHER AND/OR OBSTRUCTIONS TO VISIBILITY. N/A MEANS
CURRENT SKY AND/OR WEATHER CONDITIONS ARE NOT AVAILABLE.

MNZ060>063-068>070-200700-
   Twin Cities Metro

CITY           SKY/WX    TMP DP  RH WIND       PRES   REMARKS
TWIN CITIES    CLOUDY    72  65  78 SE15G24   29.65F
6HR MIN TEMP:  71; 6HR MAX TEMP:  76;

ST PAUL        MOCLDY    71  64  78 SE18G26   29.66F
CRYSTAL        CLOUDY    71  61  70 SE18G33   29.62F
BLAINE         CLOUDY    73  63  68 SE20G28   29.63F
LAKEVILLE      PTCLDY    68  63  83 SE9G17    29.65S
EDEN PRAIRIE   MOCLDY    71  64  78 SE16G24   29.62F
6HR MIN TEMP:  71; 6HR MAX TEMP:  76;

SOUTH ST PAUL  CLOUDY    71  63  75 SE9G17    29.66F
LAKE ELMO      MOCLDY    72  63  73 SE17G23   29.69F
$$
MNZ001>005-007-008-013>017-022>024-027-028-200700-
   Northwest Minnesota

CITY           SKY/WX    TMP DP  RH WIND       PRES   REMARKS
BEMIDJI        CLOUDY    60  58  96 N6        29.55S
HALLOCK        CLOUDY    64  61  88 SW13G23   29.41R
ROSEAU         CLOUDY    63  57  82 N13       29.45F
WARROAD        TSTM      63  59  88 S9G21     29.46R
CROOKSTON      CLOUDY    61  61 100 S8        29.47R
FOSSTON        RAIN      59  59 100 CALM      29.49R
DETROIT LAKES  HVY RAIN  63  61  94 NE3         N/A
MOORHEAD       CLOUDY    63  61  94 W10       29.51R
PARK RAPIDS    TSTM      62  59  90 W18G29    29.54R FOG
MAHNOMEN       TSTM      59  59  99 E6        29.49R
$$
MNZ006-009>011-018-025>026-200700-
   North Central Minnesota

CITY           SKY/WX    TMP DP  RH WIND       PRES   REMARKS
BAUDETTE       TSTM      62  62 100 S15G33    29.53R FOG
FLAG ISLAND    TSTM      61  59  94 E13G21    29.45F
INTL FALLS     CLOUDY    63  55  75 SE20G25   29.56F
6HR MIN TEMP:  62; 6HR MAX TEMP:  67;

WASKISH        TSTM      61  61 100 W5G30     29.54R
BIG FORK       CLOUDY    68  57  68 SE18G28   29.54F
LONGVILLE      CLOUDY    66  63  88 SE12G21   29.53F
GRAND RAPIDS   TSTM      63  60  90 SE13G24   29.60F
CRANE LAKE     CLOUDY    61  57  88 SE3       29.68F
ORR            CLOUDY    63  54  72 SE10G21   29.60F
COOK           CLOUDY    64  57  77 SE14G24   29.65F
WALKER         CLOUDY    66  62  87 SE17G23   29.51R
$$
MNZ012-019>021-037-200700-
   Northeast Minnesota

CITY           SKY/WX    TMP DP  RH WIND       PRES   REMARKS
DULUTH         CLOUDY    62  58  86 SE15      29.72S
6HR MIN TEMP:  59; 6HR MAX TEMP:  62;

ELY            CLOUDY    63  55  77 SE16G24   29.73F
HIBBING        CLOUDY    64  56  75 SE20G28   29.65F
EVELETH        CLOUDY    65  58  78 SE14G28   29.70F
DULUTH HARBOR  CLOUDY    64  61  88 NE13      29.71F
TWO HARBORS    CLOUDY    64  61  88 E9        29.74F
SILVER BAY     CLOUDY    64  59  82 E7        29.77F
$$
MNZ029>031-032-039>041-046>048-054>057-064-200700-
   West Central Minnesota

CITY           SKY/WX    TMP DP  RH WIND       PRES   REMARKS
FERGUS FALLS   RAIN      66  66 100 SW10      29.46F
WHEATON        CLOUDY    66  63  88 NW14G22   29.53R
MORRIS         RAIN      63  61  94 S14       29.52S
ALEXANDRIA     TSTM      64  62  93 SW22G28   29.54R
ELBOW LAKE     TSTM      62  62  98 W12       29.51R
WADENA         CLOUDY    70  63  78 SE16G28   29.43F
GLENWOOD       TSTM      63  61  94 SE12      29.56R
APPLETON       CLOUDY    63  61  94 S6        29.53R
BENSON         LGT RAIN  61  59  94 CALM      29.49F
ORTONVILLE     CLOUDY    63  61  94 W7        29.52S
MADISON        DRIZZLE   66  66 100 S7        29.58R
WILLMAR        MOCLDY    68  61  77 W17G33    29.61R THUNDER HAZE
$$
MNZ033>034-036-042>043-049>051-058-059-200700-
   Central Minnesota

CITY           SKY/WX    TMP DP  RH WIND       PRES   REMARKS
ST CLOUD       CLOUDY    71  64  78 SE23G30   29.55F
6HR MIN TEMP:  71; 6HR MAX TEMP:  74;

SAUK CENTRE    LGT RAIN  69  64  85 SE28G35   29.48F
PAYNESVILLE    CLOUDY    69  66  89 SE16G23   29.51F
AITKIN         CLOUDY    70  61  73 SE17G30   29.56F
PINE RIVER     CLOUDY    64  61  88 SE16G24   29.55F
BRAINERD       CLOUDY    70  62  76 SE17G30   29.51F
STAPLES        CLOUDY    70  61  73 SE16G23   29.46F
LONG PRAIRIE   CLOUDY    70  63  78 E21G32    29.45F
LITTLE FALLS   CLOUDY    72  55  56 SE23G30   29.51F
LITCHFIELD     CLOUDY    73  66  78 SE17G25   29.53F
BUFFALO        CLOUDY    71  62  73 SE17G26   29.58F
MAPLE LAKE     CLOUDY    72  65  79 SE13G26   29.57F
HUTCHINSON     CLOUDY    73  66  79 SE18G24   29.55F
$$
MNZ037-044-045-052-053-200700-
   East Central Minnesota

CITY           SKY/WX    TMP DP  RH WIND       PRES   REMARKS
PRINCETON      CLOUDY    72  64  78 SE20G25   29.59F
MORA           CLOUDY    68  59  73 SE12G21   29.63F
CAMBRIDGE      CLOUDY    73  61  64 SE12G17   29.62F
RUSH CITY      CLOUDY    70  61  74 SE16G26   29.64F
MOOSE LAKE     MOCLDY    68  59  73 SE8G20    29.64F
HINCKLEY       CLOUDY    72  63  73 SE14G23   29.65F
CLOQUET        CLOUDY    63  55  77 E12       29.70S
MCGREGOR       CLOUDY    68  61  77 SE16G26   29.60F
$$
MNZ071>073-080-081-089-090-097-098-200700-
   Southwest Minnesota

CITY           SKY/WX    TMP DP  RH WIND       PRES   REMARKS
MONTEVIDEO     TSTM      61  55  82 SW7       29.58R
GRANITE FALLS  CLOUDY    65  64  94 SW13      29.61R
CANBY          CLOUDY    67  62  85 NW14G22   29.59R
MARSHALL       TSTM      64  62  93 W8        29.59R
REDWOOD FALLS  CLOUDY    74  65  73 S22G33    29.47F
OLIVIA         CLOUDY    72  66  83 S18G30    29.48F
PIPESTONE      LGT RAIN  63  55  77 NW14G20   29.62F
WORTHINGTON    TSTM      65  62  90 NW33G46   29.61R
JACKSON        CLOUDY    73  64  73 S18G31    29.56F
TRACY          TSTM      65  64  97 W9G15     29.60R
SLAYTON        TSTM      65  62  91 W21G41    29.62R
$$
MNZ065>067-074>077-082>085-091>093-200700-
   South Central Minnesota

CITY           SKY/WX    TMP DP  RH WIND       PRES   REMARKS
MANKATO        CLOUDY    74  65  73 SE22G36   29.58F
NEW ULM        CLOUDY    73  64  73 S18G28    29.54F
ST JAMES       CLOUDY    72  66  83 SE18G25   29.56F
FAIRMONT       CLOUDY    73  66  78 S20G28    29.59S
GLENCOE        CLOUDY    73  67  81 SE21G28   29.57S
FARIBAULT      CLOUDY    72  64  78 SE17G23   29.65S
OWATONNA       CLOUDY    70  64  83 SE18G29   29.65S
WASECA         CLOUDY    70  63  78 SE16G26   29.65S
ALBERT LEA     PTCLDY    72  66  83 SE17G23   29.68R
$$
MNZ078>079-086>088-094>096-200700-
   Southeast Minnesota

CITY           SKY/WX    TMP DP  RH WIND       PRES   REMARKS
ROCHESTER      CLEAR     67  63  87 SE15      29.72S
6HR MIN TEMP:  67; 6HR MAX TEMP:  72;

RED WING       CLOUDY    72  61  68 SE14G23   29.69F
STANTON        CLOUDY    72  64  75 SE18G26   29.64F
DODGE CENTER   CLOUDY    68  63  83 SE18G26   29.70F
WINONA         PTCLDY    70  61  73 SE8       29.77R
AUSTIN         PTCLDY    68  63  83 SE12G17   29.70S
PRESTON        PTCLDY    66  61  84 S16       29.77R
$$
ABBREVIATIONS USED IN REMARKS
   TC - TEMPERATURES IN CELSIUS
  WCI - WIND CHILL INDEX
   HX - HEAT INDEX
  VSB - VISIBILITY
$$




USA.gov is the U.S. government's official web portal to all federal, state and local government web resources and services.